This is the latest recevied weather packets stored in our database for station/object W8LMG. If no packets are shown the sender has not sent any weather packets the latest 10 day(s).
| Time | Temp. | Humidity | Pressure | Rain* | Wind** | Luminosity | Snow |
|---|---|---|---|---|---|---|---|
| 1777558248 | 10.56° C | 71% | 1013 hPa | 0 mm | - | 292 W/m² | - |
| 1777557944 | 10.56° C | 66% | 1013.1 hPa | 0 mm | - | 262 W/m² | - |
| 1777557641 | 10.56° C | 70% | 1012.9 hPa | 0 mm | - | 148 W/m² | - |
| 1777557337 | 10.56° C | 71% | 1012.8 hPa | 0 mm | - | 152 W/m² | - |
| 1777557034 | 11.11° C | 73% | 1012.7 hPa | 0 mm | - | 125 W/m² | - |
| 1777556729 | 10.56° C | 74% | 1012.8 hPa | 0 mm | - | 207 W/m² | - |
| 1777556426 | 10.56° C | 74% | 1012.8 hPa | 0 mm | - | 145 W/m² | - |
| 1777556126 | 10.56° C | 75% | 1012.8 hPa | 0 mm | - | 142 W/m² | - |
| 1777555822 | 10.56° C | 75% | 1012.7 hPa | 0 mm | - | 135 W/m² | - |
| 1777555517 | 10.56° C | 77% | 1012.8 hPa | 0 mm | - | 147 W/m² | - |
| 1777555214 | 10.56° C | 77% | 1012.7 hPa | 0 mm | - | 103 W/m² | - |
| 1777554911 | 10.56° C | 76% | 1012.7 hPa | 0 mm | - | 103 W/m² | - |
| 1777554608 | 10.56° C | 82% | 1012.6 hPa | 0 mm | - | 109 W/m² | - |
| 1777554304 | 10° C | 84% | 1012.7 hPa | 0 mm | - | 105 W/m² | - |
| 1777554001 | 10° C | 82% | 1012.7 hPa | 0 mm | - | 86 W/m² | - |
| 1777553698 | 10° C | 82% | 1012.6 hPa | 0 mm | - | 83 W/m² | - |
| 1777553395 | 9.44° C | 82% | 1012.6 hPa | 0 mm | - | 63 W/m² | - |
| 1777553091 | 9.44° C | 83% | 1012.5 hPa | 0 mm | - | 52 W/m² | - |
| 1777552791 | 9.44° C | 85% | 1012.4 hPa | 0 mm | - | 52 W/m² | - |
| 1777552487 | 9.44° C | 85% | 1012.3 hPa | 0 mm | - | 49 W/m² | - |
| 1777552183 | 8.89° C | 88% | 1012.4 hPa | 0 mm | - | 54 W/m² | - |
| 1777551880 | 8.89° C | 83% | 1012.6 hPa | 0 mm | - | 22 W/m² | - |
| 1777551578 | 8.89° C | 85% | 1012.3 hPa | 0 mm | - | 26 W/m² | - |
| 1777551275 | 8.89° C | 90% | 1012.4 hPa | 0 mm | - | 23 W/m² | - |
| 1777550971 | 8.89° C | 90% | 1012.3 hPa | 0 mm | - | 21 W/m² | - |
* Rain latest hour (hover to see other rain measurements)
** Current wind speed in m/s (hover to see current wind gust speed)